CAPE
236 296 224 489 391 379 456 231 188 215 312 257 156 106 198 306 378 322 231 197 170 231 321 644 668 599 561 418 311 26 0 0 0 15 311 501 407 305 270 75 122 83 3
292 274 249 387 432 454 499 348 143 169 239 282 253 207 147 265 186 399 400 317 237 153 279 377 435 311 421 368 245 40 0 0 0 266 393 366 265 253 200 48 81 5 0
469 305 307 338 414 324 292 367 237 113 141 200 312 269 219 280 312 505 514 458 391 339 203 210 270 207 297 247 127 55 10 0 55 353 151 286 193 214 110 38 7 0 1
492 471 431 301 412 346 300 278 215 113 107 188 185 306 361 326 522 459 446 385 401 498 485 280 199 257 160 115 60 38 22 23 198 166 107 126 162 146 60 21 0 2 6
648 629 485 406 419 345 294 303 248 235 149 90 135 231 219 387 474 411 373 425 347 338 483 425 423 311 128 72 32 28 16 134 129 95 59 121 94 113 77 35 13 7 4
339 649 323 327 357 364 363 321 212 178 153 133 218 193 229 261 227 257 247 243 296 279 373 340 351 388 256 102 37 53 44 52 38 18 24 88 66 176 99 48 8 6 9
71 141 75 187 300 306 287 222 212 187 142 98 118 46 113 166 196 173 71 75 80 80 169 282 329 275 331 115 73 75 70 50 32 0 41 85 105 119 118 33 8 13 3
0 0 0 0 0 11 20 100 136 139 154 198 125 98 127 70 80 67 98 165 141 154 122 130 264 224 190 14 35 58 24 0 11 2 40 111 108 90 142 31 15 3 5
0 0 0 0 0 0 0 0 0 0 0 2 11 53 60 65 103 80 39 67 91 76 139 45 116 28 47 45 2 59 35 5 0 31 49 80 88 109 171 33 10 6 7
0 0 0 0 0 0 0 0 0 0 0 0 0 0 0 12 76 58 11 32 56 22 31 65 0 36 44 2 26 47 0 19 11 33 39 64 60 137 177 58 9 22 4
0 0 0 0 0 0 0 0 0 0 0 0 0 0 0 0 0 1 48 17 7 69 85 55 47 35 73 19 24 30 25 31 0 24 44 17 75 115 170 70 33 26 6
0 0 0 0 0 0 0 0 0 0 0 0 0 0 0 0 0 0 0 1 26 0 2 42 59 73 65 29 12 0 25 21 1 0 5 13 54 111 156 80 43 28 13
0 0 0 0 0 0 0 0 0 0 0 0 0 0 0 0 0 0 0 0 18 16 0 44 44 105 131 45 27 3 0 0 13 7 0 2 4 79 163 110 53 25 14
0 0 0 0 0 0 0 0 0 0 0 0 0 0 0 0 0 0 0 0 0 0 46 33 57 50 91 104 30 35 7 0 4 8 1 0 2 42 131 108 99 45 11
0 0 0 0 0 0 0 0 0 0 0 0 0 0 0 0 0 0 0 0 0 0 0 0 22 109 108 75 83 56 45 20 15 47 8 0 0 55 71 135 103 90 47
0 0 0 0 0 0 0 0 0 0 0 0 0 0 0 0 0 0 0 0 0 0 0 0 0 0 34 48 49 57 56 53 35 50 46 1 0 20 58 186 126 105 107
0 0 0 0 0 0 0 0 0 0 0 0 0 0 0 0 0 0 0 0 0 0 0 0 0 0 0 1 21 62 69 52 57 90 88 75 0 1 37 61 220 147 113
0 0 0 0 0 0 0 0 0 0 0 0 0 0 0 0 0 0 0 0 0 0 0 0 0 0 0 0 0 78 113 48 68 59 124 117 105 59 3 58 44 73 74
0 0 0 0 0 0 0 0 0 0 0 0 0 0 0 0 0 0 0 0 0 0 0 0 0 0 0 0 0 1 72 63 54 85 79 125 118 155 143 39 63 39 52
0 0 0 0 0 0 0 0 0 0 0 0 0 0 0 0 0 0 0 0 0 0 0 0 1 0 0 0 0 0 0 16 58 75 70 78 124 140 180 177 64 34 37
0 0 0 0 0 0 0 0 0 0 0 0 0 0 0 0 0 0 0 0 0 0 0 0 0 2 1 0 0 0 0 0 3 108 57 75 46 55 123 139 203 94 12
0 0 0 0 0 0 0 0 0 0 0 0 0 0 0 0 0 0 0 0 0 0 0 0 0 0 11 10 0 0 0 0 0 8 75 13 24 21 75 125 131 113 36
0 0 0 0 0 0 0 0 0 0 0 0 0 0 0 0 0 0 0 0 0 0 0 0 0 0 2 11 13 0 0 0 0 0 0 1 5 2 5 43 76 95 45
0 0 0 0 0 0 0 0 0 0 0 0 0 0 0 0 0 0 0 0 0 1 0 0 0 0 0 1 5 12 0 0 7 0 0 0 0 1 6 12 23 35 43
0 0 0 0 0 0 0 0 0 0 0 0 0 0 0 0 1 1 1 0 1 2 2 2 3 1 0 4 1 12 13 1 0 2 0 0 0 0 2 4 11 29 20
0 0 0 0 0 0 0 0 0 0 0 0 0 0 0 1 0 1 1 0 0 1 1 1 4 2 2 5 6 5 14 15 5 0 0 2 0 0 2 2 13 30 81
CIN
-48 -48 -102 -34 -43 -20 -10 -15 -21 -19 -59 -33 -12 -20 -19 -10 -12 -17 -27 -29 -20 -19 -10 -2 -0 -0 -0 -1 -6 -74 -0 -0 -0 -58 -3 -0 -0 -12 -23 -62 -39 -54 -17
-47 -50 -85 -41 -34 -23 -12 -8 -32 -26 -19 -39 -15 -18 -19 -18 -20 -10 -11 -16 -22 -15 -8 -4 -5 -9 -0 -0 -8 -79 -0 -0 -0 -2 -1 -0 -7 -21 -26 -70 -56 -14 -0
-16 -48 -49 -41 -15 -15 -9 -8 -14 -30 -28 -20 -7 -7 -8 -5 -9 -9 -18 -4 -7 -9 -12 -10 -11 -12 -4 -17 -57 -97 -43 -0 -57 -0 -16 -1 -11 -23 -40 -90 -37 -0 -0
-7 -15 -22 -57 -18 -13 -10 -11 -15 -36 -27 -15 -18 -8 -13 -2 -3 -11 -23 -8 -5 -0 -6 -8 -7 -2 -7 -42 -128 -25 -34 -22 -24 -18 -30 -35 -18 -29 -80 -8 -0 -0 -0
-1 -0 -34 -31 -20 -28 -24 -11 -10 -9 -17 -31 -16 -12 -12 -8 -7 -2 -4 -1 -6 -8 -0 -0 -0 -3 -15 -70 -22 -26 -24 -76 -62 -98 -25 -54 -70 -43 -92 -9 -22 -28 -1
-53 -3 -57 -51 -21 -17 -15 -13 -14 -10 -9 -10 -3 -3 -3 -4 -6 -2 -2 -2 -1 -2 -0 -0 -0 -1 -2 -21 -6 -8 -9 -9 -11 -2 -0 -6 -17 -14 -75 -6 -41 -1 -2
-135 -107 -100 -83 -29 -17 -15 -27 -20 -14 -8 -16 -6 -32 -6 -1 -1 -2 -9 -6 -5 -3 -2 -0 -0 -1 -0 -5 -5 -6 -5 -8 -16 -0 -1 -3 -100 -55 -71 -11 -54 -29 -2
-0 -0 -0 -0 -0 -75 -59 -75 -46 -47 -25 -9 -18 -15 -3 -11 -14 -27 -8 -1 -1 -0 -1 -3 -0 -0 -2 -3 -19 -7 -5 -0 -15 -0 -1 -1 -61 -9 -91 -24 -67 -0 -0
-0 -0 -0 -0 -0 -0 -0 -0 -0 -0 -30 -24 -82 -59 -25 -17 -1 -10 -40 -24 -5 -3 -1 -17 -1 -3 -5 -12 -1 -18 -25 -8 -0 -2 -0 -5 -2 -6 -104 -17 -87 -41 -0
-0 -0 -0 -0 -0 -0 -0 -0 -0 -0 -0 -0 -0 -0 -0 -95 -30 -14 -47 -23 -24 -19 -11 -9 -0 -6 -2 -3 -14 -17 -0 -45 -18 -0 -0 -1 -9 -1 -0 -10 -72 -44 -54
-0 -0 -0 -0 -0 -0 -0 -0 -0 -0 -0 -0 -0 -0 -0 -0 -0 -46 -23 -61 -43 -7 -2 -4 -9 -13 -11 -17 -19 -18 -30 -12 -0 -2 -0 -5 -3 -1 -0 -5 -43 -35 -65
-0 -0 -0 -0 -0 -0 -0 -0 -0 -0 -0 -0 -0 -0 -0 -0 -0 -0 -0 -13 -30 -0 -35 -14 -4 -8 -16 -15 -18 -0 -15 -10 -0 -0 -2 -5 -4 -1 -0 -0 -38 -27 -49
-0 -0 -0 -0 -0 -0 -0 -0 -0 -0 -0 -0 -0 -0 -0 -0 -0 -0 -0 -9 -50 -38 -30 -15 -17 -2 -3 -5 -2 -6 -0 -3 -15 -7 -0 -6 -1 -2 -1 -0 -14 -36 -50
-0 -0 -0 -0 -0 -0 -0 -0 -0 -0 -0 -0 -0 -0 -0 -0 -0 -0 -0 -0 -0 -0 -24 -35 -14 -45 -2 -5 -3 -5 -5 -0 -18 -0 -0 -0 -1 -6 -1 -0 -0 -12 -49
-0 -0 -0 -0 -0 -0 -0 -0 -0 -0 -0 -0 -0 -0 -0 -0 -0 -0 -0 -0 -0 -0 -0 -0 -4 -1 -2 -0 -3 -3 -7 -1 -10 -0 -4 -0 -0 -9 -2 -1 -0 -1 -14
-0 -0 -0 -0 -0 -0 -0 -0 -0 -0 -0 -0 -0 -0 -0 -0 -0 -0 -0 -0 -0 -0 -0 -0 -0 -0 -26 -8 -0 -11 -8 -3 -2 -0 -0 -1 -0 -21 -3 -1 -0 -1 -0
-0 -0 -0 -0 -0 -0 -0 -0 -0 -0 -0 -0 -0 -0 -0 -0 -0 -0 -0 -0 -0 -0 -0 -0 -0 -0 -0 -4 -9 -0 -6 -2 -3 -3 -0 -0 -0 -3 -11 -3 -2 -0 -0
-0 -0 -0 -0 -0 -0 -0 -0 -0 -0 -0 -0 -0 -0 -0 -0 -0 -0 -0 -0 -0 -0 -0 -0 -0 -0 -0 -0 -0 -29 -26 -5 -1 -10 -0 -0 -15 -35 -12 -13 -5 -5 -2
-0 -0 -0 -0 -0 -0 -0 -0 -0 -0 -0 -0 -0 -0 -0 -0 -0 -0 -0 -0 -0 -0 -0 -0 -0 -0 -0 -0 -0 -10 -8 -17 -25 -0 -2 -0 -11 -9 -20 -34 -12 -31 -25
-0 -0 -0 -0 -0 -0 -0 -0 -0 -0 -0 -0 -0 -0 -0 -0 -0 -0 -0 -0 -0 -0 -0 -0 -0 -0 -0 -0 -0 -0 -0 -10 -29 -0 -6 -5 -3 -14 -14 -16 -26 -16 -34
-0 -0 -0 -0 -0 -0 -0 -0 -0 -0 -0 -0 -0 -0 -0 -0 -0 -0 -0 -0 -0 -0 -0 -0 -0 -0 -1 -0 -0 -0 -0 -0 -78 -0 -1 -5 -0 -30 -27 -25 -0 -6 -12
-0 -0 -0 -0 -0 -0 -0 -0 -0 -0 -0 -0 -0 -0 -0 -0 -0 -0 -0 -0 -0 -0 -0 -0 -0 -0 -0 -1 -0 -0 -0 -0 -0 -9 -1 -11 -18 -7 -12 -10 -4 -0 -11
-0 -0 -0 -0 -0 -0 -0 -0 -0 -0 -0 -0 -0 -0 -0 -0 -0 -0 -0 -0 -0 -0 -0 -0 -0 -0 -0 -0 -1 -0 -0 -0 -0 -0 -0 -0 -22 -20 -22 -13 -10 -3 -5
-0 -0 -0 -0 -0 -0 -0 -0 -0 -0 -0 -0 -0 -0 -0 -0 -0 -1 -0 -0 -0 -0 -0 -0 -0 -1 -0 -0 -0 -0 -0 -0 -2 -0 -0 -0 -0 -4 -45 -37 -25 -22 -17
-0 -0 -0 -0 -0 -0 -0 -0 -0 -0 -0 -0 -0 -0 -0 -0 -0 -0 -0 -0 -0 -0 -0 -0 -0 -0 -0 -0 -0 -0 -0 -0 -0 -0 -0 -0 -0 -0 -0 -2 -37 -17 -47
-0 -0 -0 -0 -0 -0 -0 -0 -0 -0 -0 -0 -0 -0 -0 -0 -0 -0 -0 -0 -0 -0 -0 -0 -0 -0 -1 -0 -0 -0 -0 -0 -0 -0 -0 -0 -0 -0 -0 -3 -17 -27 -10
Wind_Speed
18 17 12 13 12 11 11 11 12 11 11 11 11 13 12 12 12 12 11 10 9 8 7 3 2 2 3 3 5 6 7 10 7 6 6 6 6 7 9 9 10 10 10
21 18 12 13 12 12 11 12 12 12 13 13 12 13 13 14 15 14 14 14 14 14 10 8 4 3 4 6 6 6 8 7 6 6 6 5 5 6 6 7 7 8 8
19 15 13 13 15 14 13 13 13 13 13 15 14 14 15 15 17 18 18 17 15 16 16 13 10 8 6 7 8 7 7 6 6 7 3 3 2 4 5 4 6 6 8
16 14 13 13 14 15 15 14 14 14 15 16 17 17 17 17 19 18 20 22 21 20 18 19 15 14 12 10 10 9 7 7 10 6 4 3 1 2 3 3 4 5 6
15 15 16 15 17 17 17 19 20 18 18 17 18 19 20 20 20 22 22 22 24 25 25 23 20 19 17 16 13 12 10 9 8 6 6 5 4 2 3 2 1 3 4
16 17 17 17 18 19 19 20 21 21 22 22 21 21 22 23 23 23 24 25 25 26 27 28 27 23 21 20 17 14 13 11 8 7 8 7 6 4 4 2 1 0 2
16 17 18 18 19 20 21 21 21 21 24 25 25 27 26 24 24 25 26 26 27 27 29 29 29 26 22 20 17 15 14 12 11 11 11 10 8 7 6 4 3 1 0
16 17 18 19 19 20 21 21 22 22 23 24 25 27 28 28 28 27 29 30 29 28 27 30 30 27 22 19 17 16 15 14 15 17 18 15 11 9 8 6 5 3 1
16 17 18 19 18 19 20 21 22 22 23 23 24 25 27 30 30 31 32 32 33 32 30 29 30 27 24 20 18 17 16 18 18 20 20 18 18 11 10 8 6 5 3
17 18 19 19 20 20 20 20 21 21 23 25 25 26 28 29 30 28 31 34 35 34 33 32 31 30 25 23 21 20 18 18 21 23 24 20 17 14 13 11 8 7 5
18 19 19 19 20 19 19 20 19 21 22 24 25 27 27 27 28 30 31 31 33 34 35 36 35 33 27 26 24 22 20 22 21 26 26 23 20 16 15 13 11 10 8
17 18 18 19 19 18 18 19 20 21 22 23 25 26 27 28 28 29 31 33 33 33 38 38 39 36 32 29 28 25 25 25 24 24 27 20 22 18 17 16 14 12 10
17 18 17 17 17 18 18 19 20 21 22 23 24 26 26 27 28 29 30 31 31 32 32 33 38 36 34 30 30 27 28 29 29 27 27 23 22 20 19 18 16 15 13
15 16 15 16 17 18 19 20 21 23 25 25 27 28 29 30 30 30 30 32 33 32 31 31 35 33 38 31 30 28 28 29 31 29 29 25 23 23 21 20 19 17 16
14 14 15 16 18 19 21 22 24 25 26 28 30 30 31 32 34 34 33 32 32 33 33 34 35 36 34 33 35 34 31 30 31 31 28 26 25 25 24 22 21 20 18
14 14 15 17 19 21 23 24 26 27 29 31 33 34 35 36 37 36 36 35 34 33 34 34 35 34 38 41 30 40 35 33 33 33 33 29 26 27 27 26 24 21 20
13 14 17 18 20 22 24 25 27 29 32 35 37 37 35 35 35 36 37 37 36 35 34 35 37 38 40 40 39 33 36 36 34 36 34 32 30 31 30 30 27 26 23
12 14 17 19 22 24 24 25 28 33 36 37 38 37 35 35 36 37 38 38 36 35 36 37 38 41 41 41 41 40 36 34 34 36 36 35 33 32 33 34 31 29 27
13 15 18 21 22 24 25 29 34 35 36 37 38 36 34 35 34 35 35 37 37 39 38 38 38 39 43 44 44 43 40 38 42 38 34 36 38 36 34 35 35 33 30
14 17 19 21 23 26 30 34 36 37 37 38 38 37 37 35 34 33 33 34 36 39 39 40 40 39 41 42 44 47 43 42 39 38 38 34 32 39 39 36 36 34 33
15 18 21 23 24 28 32 37 39 40 40 40 39 39 38 36 35 35 34 34 34 35 37 39 41 43 41 40 43 46 50 48 43 41 44 38 35 32 38 41 37 37 36
17 19 21 22 24 28 31 34 36 39 40 41 40 39 37 36 35 35 35 35 35 36 37 37 37 41 43 38 41 42 48 49 51 46 48 41 37 34 37 39 40 38 37
18 20 19 20 24 29 32 35 37 38 39 39 38 38 37 37 35 34 35 37 38 37 37 36 36 38 42 41 39 40 43 49 45 43 43 40 40 37 38 36 39 39 39
18 17 18 21 27 30 33 36 39 40 41 39 39 38 37 36 36 34 33 35 37 37 37 36 35 36 38 43 42 41 45 44 41 52 44 43 43 39 38 39 37 37 38
17 18 20 23 24 28 33 35 37 38 37 38 38 39 37 35 34 33 33 33 35 36 37 37 38 38 38 40 42 42 44 47 52 50 45 50 54 50 47 42 40 38 39
17 19 23 24 26 30 32 33 35 37 38 38 38 39 37 35 34 34 34 34 34 34 36 37 38 39 40 41 42 42 45 46 48 52 58 53 46 49 47 43 41 42 41
Wind_Direction
316 324 331 330 329 338 349 343 326 316 310 304 306 300 303 304 308 312 315 321 323 326 323 337 328 313 323 326 329 334 336 332 351 2 5 27 51 68 74 77 73 60 60
303 309 328 309 321 319 333 336 330 320 308 302 305 304 300 299 300 303 305 304 298 302 308 309 311 311 300 304 316 319 322 329 338 339 343 16 62 79 77 80 64 58 50
310 317 317 306 298 304 316 325 323 318 311 305 305 302 301 299 297 294 292 298 300 295 292 297 294 292 295 299 303 307 311 312 310 312 332 3 37 91 88 53 66 64 60
325 331 326 318 309 310 309 314 315 314 311 306 302 301 299 297 296 298 293 288 289 289 289 287 291 288 288 290 291 295 299 297 294 295 292 308 320 117 115 94 70 65 63
330 335 330 318 309 309 310 300 298 303 305 306 305 299 297 297 296 292 292 292 288 284 282 283 285 283 284 286 286 286 288 288 286 275 276 279 273 195 154 137 45 76 65
325 332 332 326 316 311 311 307 303 300 298 300 300 300 297 293 293 294 292 289 288 286 282 279 279 280 280 280 280 278 277 275 275 271 273 273 258 222 189 197 244 57 40
328 328 331 329 323 317 312 310 312 309 302 299 297 294 295 296 293 291 291 291 289 287 282 280 278 279 278 278 275 272 271 268 268 273 271 272 258 229 206 200 202 216 18
333 334 333 334 332 326 319 317 314 314 312 308 302 297 294 293 293 292 290 288 288 287 285 281 278 277 276 273 270 270 267 266 269 271 271 272 261 235 214 206 206 205 227
334 340 337 334 338 339 332 325 319 317 318 316 314 309 302 296 294 291 290 288 285 284 284 283 279 276 275 271 267 265 265 266 266 270 271 269 266 240 225 218 213 216 225
335 338 339 336 336 335 334 333 333 330 324 318 315 313 311 302 297 297 295 290 286 284 280 280 278 275 274 270 268 267 265 262 263 267 270 270 260 242 228 220 225 218 223
330 334 337 339 337 338 340 338 339 336 332 326 323 320 317 314 309 302 293 291 292 288 282 278 276 272 270 270 266 267 264 267 263 266 269 265 262 242 227 224 222 224 227
330 338 340 340 342 346 346 344 339 336 333 331 329 326 324 320 315 308 305 295 289 288 285 281 274 273 268 268 266 265 266 267 265 264 266 262 258 242 227 222 221 222 223
329 335 342 348 351 351 349 346 343 339 334 331 329 327 323 321 318 316 310 306 301 291 284 287 277 274 268 264 264 263 264 265 266 264 263 259 253 242 230 221 221 221 225
334 340 349 350 350 348 345 341 337 334 330 327 325 322 320 316 314 312 310 307 301 300 293 285 280 276 270 263 259 261 263 264 265 264 263 258 250 241 230 225 224 225 226
333 341 345 346 346 344 341 337 333 330 327 324 321 319 317 314 310 308 306 305 302 298 293 290 283 278 274 264 260 262 263 262 264 264 263 258 248 242 233 231 225 229 231
332 337 341 343 342 340 337 333 330 328 324 320 317 315 312 310 307 304 302 301 300 298 293 288 283 282 277 275 257 264 264 263 263 261 262 260 251 247 238 236 231 227 228
330 337 337 339 340 338 335 333 329 325 321 318 315 314 314 312 309 305 301 298 296 295 294 290 284 281 277 279 271 270 268 265 262 261 259 260 255 249 243 239 236 234 229
338 338 340 341 338 337 338 335 329 321 317 316 315 316 316 314 311 306 301 296 296 294 291 288 285 280 278 275 276 266 266 262 264 259 258 256 256 255 248 246 236 234 234
343 342 340 338 338 338 336 329 320 320 319 318 316 318 318 316 315 309 305 299 296 292 289 288 284 282 278 275 274 277 263 261 260 259 253 255 254 254 254 246 244 238 234
346 343 341 340 340 337 331 323 321 319 320 318 317 317 316 316 316 313 307 304 299 293 290 287 284 281 278 277 275 271 274 268 256 254 252 253 252 253 252 250 246 242 236
345 343 342 341 342 337 331 324 321 320 320 320 318 316 314 313 312 310 307 304 302 297 293 290 286 280 278 277 276 273 269 268 272 255 252 253 252 250 249 250 249 245 243
342 342 343 347 345 339 334 330 327 324 322 319 318 317 315 313 311 309 306 303 301 298 296 293 290 284 278 274 273 273 271 266 263 265 255 252 250 251 251 246 246 246 244
342 345 352 351 346 340 335 331 328 326 325 323 321 318 316 313 311 309 305 302 300 298 296 294 290 285 281 276 270 268 270 266 266 266 262 247 250 249 249 246 247 245 244
345 353 354 350 343 339 335 332 328 326 325 324 322 320 317 314 311 310 308 305 301 299 296 294 290 286 283 278 275 268 265 270 270 264 262 258 253 246 249 249 245 242 244
349 352 351 348 347 343 339 335 332 329 328 327 324 321 319 316 314 312 310 307 304 300 297 295 291 286 283 280 276 274 269 266 263 264 265 259 257 257 253 249 247 246 244
349 350 349 348 346 344 341 339 336 333 331 329 326 322 319 318 316 314 310 308 305 302 299 296 293 288 284 280 277 274 271 267 263 259 259 260 262 258 255 252 248 248 247